Dumas, TX

12:29 AM CDT on April 30, 2017 (GMT -0500)
Moore County

Weather History for KDUX - January, 2013

Change the Weather History Date:

Tuesday, January 8, 2013

  Actual Average (KDHT) Record (KDHT)
Temperature  
Mean Temperature 38 °F -  
Max Temperature 51 °F 47 °F 74 °F (2002)
Min Temperature 26 °F 20 °F -4 °F (1971)
Degree Days  
Heating Degree Days 26    
Moisture  
Dew Point 25 °F    
Average Humidity 66    
Maximum Humidity 86    
Minimum Humidity 44    
Precipitation  
Precipitation 0.00 in - - ()
Sea Level Pressure  
Sea Level Pressure 29.98 in    
Wind  
Wind Speed 11 mph (WSW)    
Max Wind Speed 17 mph    
Max Gust Speed 20 mph    
Visibility 10 miles    
Events      
Averages and records for this station are not official NWS values.
T = Trace of Precipitation, MM = Missing Value Source: NWS Daily Summary

Daily Weather History Graph

Daily Weather History Graph

Search for Another Location

Airport or City:

Trip Planner

Search our weather history database for the weather conditions in past years. The results will help you decide how hot, cold, wet, or windy it might be!

Date:

Astronomy

Jan. 08, 2013 Rise Set
Actual Time 7:58 AM CST 5:51 PM CST
Civil Twilight 7:30 AM CST 6:19 PM CST
Nautical Twilight 6:58 AM CST 6:51 PM CST
Astronomical Twilight 6:27 AM CST 7:22 PM CST
Moon 4:34 AM CST (1/8) 2:55 PM CST (1/8)
Length of Visible Light 10h 48m
Length of Day
9h 52m
Waning Crescent, 13% of the Moon is Illuminated
Jan 8
Waning Crescent
Jan 11
New
Jan 18
First Quarter
Jan 26
Full
Feb 3
Last Quarter

Hourly Weather History & Observations

Time (CST) Temp. Windchill Dew Point Humidity Pressure Visibility Wind Dir Wind Speed Gust Speed Precip Events Conditions
12:15 AM 32.0 °F 22.5 °F 21.2 °F 64% 29.93 in 10.0 mi SSW 12.7 mph - N/A   Clear
12:35 AM 32.0 °F 23.0 °F 21.2 °F 64% 29.93 in 10.0 mi SSW 11.5 mph - N/A   Clear
12:55 AM 32.0 °F 22.5 °F 21.2 °F 64% 29.93 in 10.0 mi SSW 12.7 mph - N/A   Clear
1:15 AM 32.0 °F 22.5 °F 21.2 °F 64% 29.93 in 10.0 mi SSW 12.7 mph - N/A   Clear
1:35 AM 30.2 °F 21.3 °F 21.2 °F 69% 29.92 in 10.0 mi South 10.4 mph - N/A   Clear
1:55 AM 28.4 °F 20.4 °F 21.2 °F 74% 29.93 in 10.0 mi SSW 8.1 mph - N/A   Clear
2:15 AM 30.2 °F 20.8 °F 21.2 °F 69% 29.92 in 10.0 mi SW 11.5 mph - N/A   Clear
2:35 AM 30.2 °F 22.6 °F 21.2 °F 69% 29.92 in 10.0 mi SSW 8.1 mph - N/A   Clear
2:55 AM 30.2 °F 20.8 °F 23.0 °F 75% 29.91 in 10.0 mi SSW 11.5 mph - N/A   Clear
3:15 AM 30.2 °F 19.8 °F 23.0 °F 75% 29.91 in 10.0 mi SW 13.8 mph - N/A   Clear
3:35 AM 30.2 °F 19.8 °F 23.0 °F 75% 29.91 in 10.0 mi SW 13.8 mph - N/A   Clear
3:55 AM 30.2 °F 19.8 °F 23.0 °F 75% 29.92 in 10.0 mi SW 13.8 mph - N/A   Clear
4:15 AM 30.2 °F 21.3 °F 23.0 °F 75% 29.92 in 10.0 mi SW 10.4 mph - N/A   Clear
4:35 AM 32.0 °F 24.8 °F 23.0 °F 69% 29.91 in 10.0 mi SW 8.1 mph - N/A   Clear
4:55 AM 30.2 °F 22.6 °F 23.0 °F 75% 29.90 in 10.0 mi SW 8.1 mph - N/A   Clear
5:15 AM 30.2 °F 21.3 °F 23.0 °F 75% 29.90 in 10.0 mi SW 10.4 mph - N/A   Clear
5:35 AM 28.4 °F 19.7 °F 23.0 °F 80% 29.90 in 10.0 mi SW 9.2 mph - N/A   Clear
5:55 AM 28.4 °F 19.1 °F 23.0 °F 80% 29.90 in 10.0 mi SW 10.4 mph - N/A   Clear
6:15 AM 28.4 °F 18.5 °F 23.0 °F 80% 29.90 in 10.0 mi SW 11.5 mph - N/A   Clear
6:35 AM 28.4 °F 18.5 °F 23.0 °F 80% 29.90 in 10.0 mi SW 11.5 mph - N/A   Clear
6:55 AM 28.4 °F 20.4 °F 23.0 °F 80% 29.90 in 10.0 mi SSW 8.1 mph - N/A   Clear
7:35 AM 28.4 °F 20.4 °F 23.0 °F 80% 29.91 in 10.0 mi SSW 8.1 mph - N/A   Clear
7:55 AM 26.6 °F 17.5 °F 23.0 °F 86% 29.91 in 10.0 mi SSW 9.2 mph - N/A   Clear
8:15 AM 28.4 °F 19.1 °F 23.0 °F 80% 29.91 in 10.0 mi SSW 10.4 mph - N/A   Clear
8:35 AM 28.4 °F 21.2 °F 23.0 °F 80% 29.92 in 10.0 mi SSW 6.9 mph - N/A   Clear
8:55 AM 30.2 °F 24.3 °F 24.8 °F 80% 29.92 in 10.0 mi SSW 5.8 mph - N/A   Clear
9:15 AM 32.0 °F 24.2 °F 26.6 °F 80% 29.94 in 10.0 mi SSW 9.2 mph - N/A   Clear
9:35 AM 33.8 °F 25.8 °F 26.6 °F 75% 29.95 in 10.0 mi SSW 10.4 mph - N/A   Clear
9:55 AM 35.6 °F 26.6 °F 26.6 °F 70% 29.95 in 10.0 mi SSW 13.8 mph - N/A   Clear
10:15 AM 37.4 °F 28.5 °F 28.4 °F 70% 29.95 in 10.0 mi SW 15.0 mph - N/A   Clear
10:35 AM 39.2 °F 30.5 °F 26.6 °F 61% 29.95 in 10.0 mi SW 16.1 mph - N/A   Clear
10:55 AM 41.0 °F 33.5 °F 28.4 °F 61% 29.95 in 10.0 mi SSW 13.8 mph - N/A   Clear
11:15 AM 42.8 °F 36.2 °F 28.4 °F 57% 29.95 in 10.0 mi SW 12.7 mph - N/A   Clear
11:35 AM 42.8 °F 35.4 °F 28.4 °F 57% 29.95 in 10.0 mi SW 15.0 mph - N/A   Clear
11:55 AM 44.6 °F 38.1 °F 28.4 °F 53% 29.94 in 10.0 mi SW 13.8 mph - N/A   Clear
12:15 PM 44.6 °F 38.1 °F 28.4 °F 53% 29.93 in 10.0 mi SW 13.8 mph - N/A   Clear
12:35 PM 46.4 °F 39.5 °F 28.4 °F 50% 29.93 in 10.0 mi SW 17.3 mph - N/A   Clear
12:55 PM 48.2 °F - 30.2 °F 50% 29.94 in 10.0 mi SW 12.7 mph - N/A   Clear
1:15 PM 48.2 °F - 30.2 °F 50% 29.93 in 10.0 mi West 15.0 mph 19.6 mph N/A   Clear
1:35 PM 48.2 °F - 30.2 °F 50% 29.93 in 10.0 mi West 13.8 mph 18.4 mph N/A   Clear
1:55 PM 50.0 °F - 30.2 °F 47% 29.93 in 10.0 mi West 12.7 mph - N/A   Clear
2:35 PM 50.0 °F - 30.2 °F 47% 29.93 in 10.0 mi WSW 9.2 mph - N/A   Clear
2:55 PM 51.8 °F - 30.2 °F 44% 29.93 in 10.0 mi SW 9.2 mph - N/A   Clear
3:15 PM 51.8 °F - 30.2 °F 44% 29.93 in 10.0 mi SW 9.2 mph - N/A   Clear
3:35 PM 51.8 °F - 30.2 °F 44% 29.95 in 10.0 mi SW 4.6 mph - N/A   Clear
3:55 PM 51.8 °F - 30.2 °F 44% 29.96 in 10.0 mi SW 5.8 mph - N/A   Clear
4:15 PM 51.8 °F - 30.2 °F 44% 29.98 in 10.0 mi West 6.9 mph - N/A   Clear
4:35 PM 51.8 °F - 30.2 °F 44% 29.98 in 10.0 mi West 5.8 mph - N/A   Clear
4:55 PM 51.8 °F - 30.2 °F 44% 29.99 in 10.0 mi West 5.8 mph - N/A   Clear
5:15 PM 50.0 °F - 30.2 °F 47% 30.00 in 10.0 mi West 4.6 mph - N/A   Clear
5:35 PM 48.2 °F - 30.2 °F 50% 30.00 in 10.0 mi Calm Calm - N/A   Clear
5:55 PM 44.6 °F 41.4 °F 28.4 °F 53% 30.01 in 10.0 mi North 5.8 mph - N/A   Clear
6:35 PM 35.6 °F 28.0 °F 24.8 °F 65% 30.02 in 10.0 mi North 10.4 mph - N/A   Clear
6:55 PM 33.8 °F 26.4 °F 23.0 °F 65% 30.04 in 10.0 mi NNW 9.2 mph - N/A   Clear
7:15 PM 33.8 °F 24.8 °F 23.0 °F 65% 30.06 in 10.0 mi North 12.7 mph - N/A   Clear
7:35 PM 35.6 °F 27.1 °F 23.0 °F 60% 30.07 in 10.0 mi North 12.7 mph - N/A   Clear
7:55 PM 33.8 °F 25.3 °F 23.0 °F 65% 30.07 in 10.0 mi North 11.5 mph - N/A   Clear
8:15 PM 33.8 °F 26.4 °F 23.0 °F 65% 30.09 in 10.0 mi NNE 9.2 mph - N/A   Clear
8:35 PM 32.0 °F 23.0 °F 23.0 °F 69% 30.10 in 10.0 mi North 11.5 mph - N/A   Clear
8:55 PM 32.0 °F 23.6 °F 23.0 °F 69% 30.10 in 10.0 mi North 10.4 mph - N/A   Clear
9:15 PM 32.0 °F 26.4 °F 23.0 °F 69% 30.14 in 10.0 mi NE 5.8 mph - N/A   Clear
9:35 PM 30.2 °F 21.9 °F 23.0 °F 75% 30.14 in 10.0 mi North 9.2 mph - N/A   Clear
9:55 PM 30.2 °F 22.6 °F 23.0 °F 75% 30.14 in 10.0 mi NNE 8.1 mph - N/A   Clear
10:15 PM 30.2 °F 23.4 °F 23.0 °F 75% 30.15 in 10.0 mi NNE 6.9 mph - N/A   Clear
10:35 PM 28.4 °F 23.3 °F 23.0 °F 80% 30.16 in 10.0 mi North 4.6 mph - N/A   Clear
10:55 PM 28.4 °F 21.2 °F 23.0 °F 80% 30.17 in 10.0 mi North 6.9 mph - N/A   Clear
11:15 PM 26.6 °F 16.8 °F 23.0 °F 86% 30.17 in 10.0 mi North 10.4 mph - N/A   Clear
11:35 PM 28.4 °F 17.5 °F 23.0 °F 80% 30.19 in 10.0 mi North 13.8 mph - N/A   Clear